www.pogodaiklimat.ru

Погода и климат >> Архив погоды >> Ирак >> Basrah


ПОГОДА в Basrah

  • Прогноз погоды в Basrah
  • Монитор погоды в Basrah
  • Климат города

АРХИВ ПОГОДЫ в Basrah

Время (UTC), дата Ветер
(напр.,м/с)
 
Видим.   Явления Облачность Т
(С)
Тd
(С)
f
(%)
Тe
(С)
Тes
(С)
Комфортность P
(гПа)
Po
(гПа)
Тmin
(С)
Tmax
(С)
R
(мм)
R24
(мм)
S
(см)
09 11.08 Ю 4 10 км 4/0
[Ac trans Ci fib]
+45.8 +19.6 23 +50 +62 опасность
перегрева
998.1 998.0
12 11.08 Ю 4 10 км 4/0
[Ac trans Ci fib]
+45.8 +19.6 23 +50 +56 опасность
перегрева
998.1 998.0
15 11.08 ЮВ 4 10 км 3/0
[Ac trans Ci fib]
+43.5 +17.5 22 +46 +46 опасность
перегрева
997.0 997.0
21 11.08 Ю 4 10 км 5/0
[Ac trans Ci fib]
+37.2 +19.3 35 +42 +42 опасность
перегрева
998.1 998.0
00 12.08 ЮВ 2 10 км 4/0
[Ac trans]
+36.7 +14.8 27 +38 +38 очень
душно
996.7 997.0
03 12.08 Ю 3 10 км 6/5 1200 м
[Sc Ac trans]
+33.2 +27.4 72 +52 +53 опасность
перегрева
998.8 999.0
06 12.08 Ю 5 10 км 5/0
[Ac trans Ci fib]
+38.4 +26.9 52 +55 +60 опасность
перегрева
999.9 1000.0 +32.8
09 12.08 Ю 2 10 км 3/0
[Ci fib]
+45.5 +18.0 21 +49 +68 опасность
перегрева
998.9 999.0
12 12.08 Ю 3 10 км ясно +48.8 +10.2 11 +48 +56 опасность
перегрева
997.4 997.0
18 12.08 ЮВ 3 10 км 5/0
[Ac trans]
+38.6 +23.6 42 +49 +49 опасность
перегрева
998.5 999.0 +49.5
00 13.08 Ю 2 10 км 3/0
[Ac trans]
+35.5 +23.4 50 +46 +46 опасность
перегрева
997.2 997.0
03 13.08 штиль 0 10 км 3/0
[Ac trans]
+34.2 +24.6 57 +47 +47 опасность
перегрева
998.2 998.0
06 13.08 ЮВ 2 10 км 3/0
[Ac trans]
+39.0 +23.4 41 +49 +59 опасность
перегрева
999.2 999.0 +34.0
09 13.08 СВ 3 10 км ясно +45.4 +22.2 27 +53 +70 опасность
перегрева
998.8 999.0
12 13.08 СВ 3 10 км 4/0
[Ac trans]
+50.2 +10.8 10 +49 +55 опасность
перегрева
997.5 998.0
15 13.08 Ю 2 10 км ясно +47.2 +12.3 13 +47 +47 опасность
перегрева
997.1 997.0
18 13.08 штиль 0 10 км ясно +41.4 +19.2 28 +46 +46 опасность
перегрева
998.4 998.0 +50.6
21 13.08 штиль 0 10 км ясно +38.4 +12.2 21 +38 +38 очень
жарко
998.4 998.0
00 14.08 З 3 10 км ясно +36.4 +10.8 21 +35 +35 очень
жарко
998.3 998.0
03 14.08 штиль 0 10 км 1/0
[Ci fib]
+35.0 +11.0 23 +34 +35 очень
жарко
999.3 999.0
06 14.08 З 4 10 км 3/0
[Ci fib]
+41.0 +8.6 14 +39 +47 очень
жарко
1000.0 1000.0 +34.6
12 14.08 СЗ 4 10 км ясно +51.0 +8.7 9 +49 +56 опасность
перегрева
998.2 998.0
15 14.08 СЗ 2 10 км ясно +47.6 +13.1 14 +48 +48 опасность
перегрева
997.7 998.0
18 14.08 СЗ 3 10 км 3/0
[Ac trans]
+43.0 +13.6 18 +43 +43 опасность
перегрева
999.4 999.0 +51.5
21 14.08 С 2 10 км 3/0
[Ac trans]
+38.8 +15.3 25 +40 +40 очень
душно
1000.0 1000.0
00 15.08 СЗ 2 10 км ясно +38.5 +12.5 21 +38 +38 очень
жарко
999.5 1000.0
03 15.08 СЗ 2 10 км ясно +35.2 +13.8 28 +36 +37 очень
жарко
1000.6 1001.0
06 15.08 СЗ 3 10 км ясно +43.3 +13.3 17 +43 +53 опасность
перегрева
1000.9 1001.0 +35.0
09 15.08 СЗ 4 10 км ясно +48.2 +10.2 11 +47 +60 опасность
перегрева
1000.0 1000.0
12 15.08 СЗ 5 10 км ясно +48.8 +10.2 11 +48 +53 опасность
перегрева
999.0 999.0
15 15.08 СЗ 4 10 км ясно +46.2 +6.9 10 +44 +44 опасность
перегрева
998.5 999.0
18 15.08 СЗ 4 10 км ясно +42.0 +13.8 19 +42 +42 опасность
перегрева
1000.3 1000.0 +49.6
21 15.08 СЗ 5 10 км ясно +39.8 +21.4 35 +38 +38 очень
жарко
1000.3 1000.0
00 16.08 ЮВ 4 10 км ясно +35.0 +27.3 64 +53 +53 опасность
перегрева
1000.5 1001.0
03 16.08 ЮВ 2 10 км 3/0
[Ac trans]
+33.2 +29.1 79 +57 +57 опасность
перегрева
1001.1 1001.0
06 16.08 Ю 2 10 км 3/0
[Ac trans]
+39.2 +18.9 31 +54 +64 опасность
перегрева
1002.2 1002.0 +32.8
09 16.08 З 3 10 км 1/1 1200 м
[Cu hum]
+47.4 +9.7 11 +46 +61 опасность
перегрева
1002.3 1002.0
12 16.08 СЗ 2 10 км 1/1 1200 м
[Cu hum]
+47.4 +14.3 15 +48 +57 опасность
перегрева
1000.4 1000.0
18 16.08 штиль 0 10 км 1/0
[Ac trans Ci fib]
+40.2 +22.1 36 +48 +48 опасность
перегрева
1001.1 1001.0 +48.5
21 16.08 ЮВ 5 10 км ясно +36.2 +27.2 60 +55 +55 опасность
перегрева
1001.1 1001.0
00 17.08 ЮВ 3 10 км ясно +34.4 +28.7 72 +57 +57 опасность
перегрева
1000.0 1000.0
09 17.08 В 2 10 км ясно +44.6 +24.7 33 +56 +76 опасность
перегрева
1002.0 1002.0
12 17.08 С 2 10 км ясно +42.8 +14.2 19 +43 +53 опасность
перегрева
999.8 1000.0
15 17.08 СЗ 2 10 км 1/0 1200 м
[Ac trans]
+46.2 +12.0 14 +46 +46 опасность
перегрева
999.5 1000.0
18 17.08 Ю 2 10 км ясно +40.8 +24.0 39 +52 +52 опасность
перегрева
1000.4 1000.0 +49.6
21 17.08 Ю 3 10 км ясно +36.2 +30.4 72 +64 +64 опасность
перегрева
1000.7 1001.0
00 18.08 Ю 3 10 км ясно +35.4 +26.3 59 +51 +51 опасность
перегрева
1000.4 1000.0

 

Местоположение метеостанции Basrah (Ирак): широта 30.57 долгота 47.78 высота над уровнем моря 2 м.

В архиве по умолчанию представлена погода в Basrah за последнюю неделю. Архивные данные за месяц целиком и за предыдущие месяцы, начиная с января 2011 года, Вы можете получить, выбрав интересующий диапазон дат из раскрывающегося списка и нажав кнопку "Ввод!".

Внимание! Время в таблицах - всемирное. Для получения местного времени необходимо прибавить поправку, которая в Basrah равна 3 ч.

Смотрите также архив погоды в соседних городах и на ближайших метеорологических станциях:

Погода в Basrah Airport (Ирак) (6 км)
Погода в Abadan (Иран) (50 км)
Погода в Abdaly (Кувейт) (55 км)
Погода в Warba (Кувейт) (70 км)
Погода в Sabriyah (Кувейт) (91 км)
Погода в Mitribah (Кувейт) (92 км)
Погода в Fao (Ирак) (95 км)
Погода в Bubiyan (Кувейт) (106 км)
Погода в Ahwaz (Иран) (120 км)
Погода в Failaka Island (Кувейт) (131 км)

Пояснения к столбцам:

Ветер - указаны скорость ветра в м/с - средняя за 10 мин, порывы в срок и между сроками (в фигурных скобках) и направление, откуда дует ветер: С - северный, СВ - северо-восточный, В - восточный, ЮВ - юго-восточный, Ю - южный, ЮЗ - юго-западный, З - западный, СЗ - северо-западный.
Видимость - горизонтальная дальность видимости в метрах или километрах. При видимости от 1 до 10 км при отсутствии осадков обычно наблюдается дымка, при ухудшении видимости до 1 км и менее - туман. В сухую погоду видимость может ухудшаться дымом, пылью или мглою.
Явления - указаны атмосферные явления, наблюдавшиеся в срок или в последний час перед сроком; фигурными скобками обозначены явления, наблюдавшиеся между сроками (за 1-3 часа до срока); квадратными скобками обозначены град или гололедные отложения с указанием их диаметра в мм.
Облачность - указаны через наклонную черту общая и нижняя облачность в баллах и высота нижней границы облаков в метрах; квадратными скобками обозначены формы облаков: Ci - перистые, Cs - перисто-слоистые, Cc - перисто-кучевые, Ac - высококучевые, As - высокослоистые, Sc - слоисто-кучевые, Ns - слоисто-дождевые, Cu - кучевые, Cb - кучево-дождевые. Подробнее классификацию облаков см. в Атласе облаков (PDF).
T - Температура воздуха - температура, измеренная на высоте 2 м над землей.
Td - Температура точки росы - температура, при понижении до которой содержащийся в воздухе водяной пар достигнет насыщения.
f - Относительная влажность воздуха - влажноcть воздуха, измеренная на высоте 2 м над землей.
Te - Эффективная температура - температура, которую ощущает одетый по сезону человек в тени. Характеристика душности погоды. При расчете учитывается влияние влажности воздуха и скорости ветра на теплоощущения человека.
Tes - Эффективная температура на солнце - температура, которую ощущает человек, с поправкой на солнечный нагрев. Характеристика знойности погоды. Зависит от высоты солнца над горизонтом, облачности и скорости ветра. Ночью, в пасмурную погоду, а также при ветре 12 м/с и более поправка равна нулю.
P - Атмосферное давление - приведенное к уровню моря атмосферное давление.
Po - Атмосферное давление - измеренное на уровне метеостанции атмосферное давление.
Tmin - Минимальная температура - минимум температуры воздуха на высоте 2 м над землей.
Tmax - Максимальная температура - максимум температуры воздуха на высоте 2 м над землей.
R - Количество осадков - Количество выпавших осадков за период времени, мм. При наведении курсора мыши на число - период времени, за который выпало указанное количество осадков.
R24 - Количество осадков - Количество выпавших осадков за 24 часа, мм.
S - Снежный покров - Высота снежного покрова, см. При наведении курсора мыши на число - состояние снежного покрова и степень покрытия местности в баллах.